This is the latest recevied weather packets stored in our database for station/object KC7RJK-2. If no packets are shown the sender has not sent any weather packets the latest 10 day(s).
| Time | Temp. | Humidity | Pressure | Rain* | Wind** | Luminosity | Snow |
|---|---|---|---|---|---|---|---|
| 1777693209 | 16.11° C | 73% | 1015.8 hPa | 0 mm | - | - | - |
| 1777692612 | 16.67° C | 71% | 1015.5 hPa | 0 mm | - | - | - |
| 1777692009 | 16.67° C | 70% | 1015.4 hPa | 0 mm | - | - | - |
| 1777691409 | 17.22° C | 68% | 1015.2 hPa | 0 mm | - | - | - |
| 1777690809 | 17.22° C | 66% | 1015.1 hPa | 0 mm | - | - | - |
| 1777690209 | 17.78° C | 66% | 1014.9 hPa | 0 mm | - | - | - |
| 1777689609 | 17.78° C | 65% | 1014.9 hPa | 0 mm | - | - | - |
| 1777689012 | 18.33° C | 63% | 1014.7 hPa | 0 mm | - | - | - |
| 1777688410 | 18.89° C | 62% | 1014.7 hPa | 0 mm | - | - | - |
| 1777687810 | 19.44° C | 69% | 1014.5 hPa | 0 mm | - | - | - |
| 1777687210 | 19.44° C | 70% | 1014.4 hPa | 0 mm | - | - | - |
| 1777686609 | 20° C | 70% | 1014.4 hPa | 0 mm | - | - | - |
| 1777686009 | 20° C | 70% | 1014.3 hPa | 0 mm | - | - | - |
| 1777685410 | 20.56° C | 70% | 1014.3 hPa | 0 mm | - | - | - |
| 1777684809 | 20.56° C | 70% | 1014.3 hPa | 0 mm | - | - | - |
| 1777684209 | 21.11° C | 69% | 1014.2 hPa | 0 mm | - | - | - |
| 1777683609 | 21.11° C | 67% | 1014.2 hPa | 0 mm | - | - | - |
| 1777683010 | 22.22° C | 63% | 1014.2 hPa | 0 mm | - | - | - |
| 1777682410 | 22.78° C | 59% | 1014.1 hPa | 0 mm | - | - | - |
| 1777681810 | 22.78° C | 59% | 1014.2 hPa | 0 mm | - | - | - |
| 1777681210 | 22.22° C | 61% | 1014.2 hPa | 0 mm | - | - | - |
| 1777680609 | 22.78° C | 58% | 1014.3 hPa | 0 mm | - | - | - |
| 1777680009 | 22.78° C | 57% | 1014.3 hPa | 0 mm | - | - | - |
| 1777679409 | 22.78° C | 57% | 1014.4 hPa | 0 mm | - | - | - |
| 1777678809 | 23.33° C | 56% | 1014.4 hPa | 0 mm | - | - | - |
* Rain latest hour (hover to see other rain measurements)
** Current wind speed in m/s (hover to see current wind gust speed)